Location: Aldenham
(51.6667°N, 0.3500°W)
Time: 17:25:25
(UTC+00:00)

Vanguard 2 Rocket - Pass Details

Date: 17 February 2026
Orbit: 553 x 3286 km, 32.9° (Epoch: 11 March)

Event Time Altitude Azimuth Distance (km) Brightness Sun altitude
Rises 16:56:52 0° 262° (W) 6,276 13.1 2.5°
Reaches altitude 10° 17:02:54 10° 249° (WSW) 4,735 13.1 1.6°
Maximum altitude 17:10:54 20° 209° (SSW) 3,158 10.5 0.5°
Drops below altitude 10° 17:16:40 10° 166° (SSE) 3,243 9.8 -0.4°
Sets 17:19:48 0° 148° (SSE) 3,840 10.0 -0.8°
